Location: DARK SKY Beskydy - Park tmavé oblohy, www.darkskybeskydy.cz
(49.4926°N, 18.5016°E)
Time: 17:34:31
(UTC+02:00)

PCSat - Pass Details

Date: 11 August 2024
Orbit: 781 x 793 km, 67.1° (Epoch: 08 September)

Event Time Altitude Azimuth Distance (km) Brightness Sun altitude
Rises 02:14:50 0° 323° (NW) 3,301 13.2 -22.7°
Reaches altitude 10° 02:17:16 10° 321° (NW) 2,368 12.4 -22.6°
Maximum altitude 02:22:40 72° 239° (WSW) 834 9.4 -22.3°
Enters shadow 02:24:19 45° 168° (SSE) 1,070 9.8 -22.1°
